Powrót do katalogu

PRAETORIAN SDA_503

AktywnyPO
NORAD 100061·PAYLOAD·🇺🇸 United States

Wystrzelony Jul 16, 2026 z Vandenberg Space Force Base

Loading…

Następne Przeloty (najbliższe 24 godziny)

TLE

ŚwieżeSource: Space-Track

Epoka: Sep 14, 2026, 23:09 UTC

1 A0061U 26163C   26257.96476444  .00000086  00000-0  63952-4 0  9994
2 A0061  81.4789 254.9914 0016894  53.7675 306.5042 13.85875755  8339

Śledź PRAETORIAN SDA_503 w czasie rzeczywistym z AllMySat

Download on the App Store